Location: Treviso
(45.6669°N, 12.2430°E)
Time: 19:04:21
(UTC+02:00)

ISS - Pass Details

Date: 23 May 2018
Orbit: 402 x 408 km, 51.6° (Epoch: 19 September)

Event Time Altitude Azimuth Distance (km) Brightness Sun altitude
Rises 23:39:04 0° 277° (W) 2,319 0.4 -20.6°
Reaches altitude 10° 23:41:19 10° 289° (WNW) 1,459 -0.5 -20.8°
Maximum altitude 23:44:14 29° 352° (N) 770 -1.8 -21.0°
Drops below altitude 10° 23:47:09 10° 55° (NE) 1,459 -0.9 -21.1°
Sets 23:49:24 0° 67° (ENE) 2,320 0.1 -21.3°
